W5CGC Weather Reports


Display with metric or nautical units.
time (UTC)temp
F
wind
direction
speed
MPH
gust
MPH
rain 1hr
in
rain 24hr
in
rain mn
in
humidity
%
barometer
mb
20260904074559 79 65 0.0 2.0 0.00 0.00 0.00 62 1012.7
20260904073040 80 0 0.0 3.0 0.00 0.00 0.00 62 1012.7
20260904071544 80 34 0.0 5.0 0.00 0.00 0.00 61 1012.8
20260904070042 80 0 1.0 5.0 0.00 0.00 0.00 61 1012.8
20260904064541 80 89 1.0 6.0 0.00 0.00 0.00 60 1012.9
20260904063047 80 44 1.0 9.0 0.00 0.00 0.00 60 1013.0
20260904061541 80 39 1.0 4.0 0.00 0.00 0.00 59 1013.1
20260904060041 80 37 0.0 6.0 0.00 0.00 0.00 58 1013.2
20260904054545 80 0 0.0 3.0 0.00 0.00 0.00 57 1013.0
20260904053042 80 0 0.0 7.0 0.00 0.00 0.00 56 1013.1
20260904051542 80 34 1.0 3.0 0.00 0.00 0.00 55 1013.0
20260904050038 80 0 0.0 1.0 0.00 0.00 0.00 54 1013.0
20260904044549 81 0 0.0 5.0 0.00 0.00 0.00 54 1012.8
20260904043037 81 15 0.0 3.0 0.00 0.00 0.00 54 1012.8
20260904041543 81 19 1.0 6.0 0.00 0.00 0.00 54 1012.8
20260904040100 81 0 0.0 3.0 0.00 0.00 0.00 53 1013.0
20260904034543 82 237 1.0 7.0 0.00 0.00 0.00 53 1013.0
20260904033040 82 0 0.0 7.0 0.00 0.00 0.00 53 1013.0
20260904031538 82 0 0.0 5.0 0.00 0.00 0.00 52 1013.0
20260904030043 83 8 0.0 6.0 0.00 0.00 0.00 52 1012.8
20260904024543 83 38 0.0 6.0 0.00 0.00 0.00 53 1012.7
20260904023047 82 23 0.0 6.0 0.00 0.00 0.00 56 1012.4
20260904021540 81 12 2.0 7.0 0.00 0.00 0.00 59 1012.2
20260904020044 83 33 1.0 8.0 0.00 0.00 0.00 55 1011.9
20260904014612 85 185 2.0 11.0 0.00 0.00 0.00 49 1011.5
20260904013042 86 196 0.0 7.0 0.00 0.00 0.00 45 1011.3
20260904011544 87 18 0.0 6.0 0.00 0.00 0.00 45 1011.1
20260904010049 87 12 2.0 6.0 0.00 0.00 0.00 45 1010.8
20260904004545 88 30 0.0 8.0 0.00 0.00 0.00 45 1010.7
20260904003046 89 243 0.0 6.0 0.00 0.00 0.00 44 1010.7
20260904001546 89 18 2.0 9.0 0.00 0.00 0.00 43 1010.7
20260904000041 90 25 1.0 8.0 0.00 0.00 0.00 43 1010.6
20260903234542 90 30 2.0 7.0 0.00 0.00 0.00 44 1010.5
20260903233044 90 358 0.0 11.0 0.00 0.00 0.00 45 1010.4
20260903231545 90 13 2.0 9.0 0.00 0.00 0.00 44 1010.3
20260903230049 91 271 2.0 8.0 0.00 0.00 0.00 44 1010.2
20260903224540 91 56 1.0 9.0 0.00 0.00 0.00 43 1010.3
20260903223053 92 261 2.0 6.0 0.00 0.00 0.00 43 1010.2
20260903221539 92 252 2.0 10.0 0.00 0.00 0.00 42 1010.2
20260903220052 92 28 2.0 9.0 0.00 0.00 0.00 41 1010.2
20260903214540 92 8 1.0 6.0 0.00 0.00 0.00 42 1010.4
20260903213042 93 32 0.0 9.0 0.00 0.00 0.00 42 1010.4
20260903211543 92 36 4.0 10.0 0.00 0.00 0.00 43 1010.5
20260903210049 92 223 1.0 7.0 0.00 0.00 0.00 44 1010.8
20260903204542 92 263 0.0 8.0 0.00 0.00 0.00 44 1011.0
20260903203048 91 51 1.0 6.0 0.00 0.00 0.00 45 1011.2
20260903201542 91 237 2.0 7.0 0.00 0.00 0.00 46 1011.3
20260903200044 91 266 2.0 11.0 0.00 0.00 0.00 45 1011.5
20260903194542 91 56 2.0 13.0 0.00 0.00 0.00 46 1011.5
20260903193041 91 23 1.0 7.0 0.00 0.00 0.00 47 1011.7
20260903191546 91 355 3.0 11.0 0.00 0.00 0.00 46 1012.0
20260903190037 91 353 3.0 11.0 0.00 0.00 0.00 47 1012.2
20260903184543 90 0 2.0 7.0 0.00 0.00 0.00 49 1012.4
20260903183039 90 236 2.0 14.0 0.00 0.00 0.00 50 1012.5
20260903181539 89 56 1.0 7.0 0.00 0.00 0.00 50 1012.7
20260903180049 88 186 4.0 10.0 0.00 0.00 0.00 51 1012.7
20260903174542 88 45 3.0 11.0 0.00 0.00 0.00 52 1012.8
20260903173041 88 4 1.0 11.0 0.00 0.00 0.00 52 1013.2
20260903171549 88 210 2.0 8.0 0.00 0.00 0.00 52 1013.3
20260903170046 87 0 1.0 10.0 0.00 0.00 0.00 54 1013.2
20260903164546 86 1 2.0 11.0 0.00 0.00 0.00 54 1013.4
20260903163037 85 2 2.0 10.0 0.00 0.00 0.00 56 1013.4
20260903161543 85 33 3.0 9.0 0.00 0.00 0.00 56 1013.5
20260903160044 85 8 2.0 7.0 0.00 0.00 0.00 56 1013.5
20260903154541 84 0 1.0 7.0 0.00 0.00 0.00 58 1013.4
20260903153041 83 0 0.0 5.0 0.00 0.00 0.00 59 1013.4
20260903151541 83 30 1.0 8.0 0.00 0.00 0.00 60 1013.4
20260903150106 81 0 0.0 4.0 0.00 0.00 0.00 61 1013.5
20260903144543 81 67 0.0 4.0 0.00 0.00 0.00 62 1013.6
20260903143040 80 197 0.0 9.0 0.00 0.00 0.00 62 1013.7
20260903141542 79 21 0.0 6.0 0.00 0.00 0.00 63 1013.7
20260903140043 79 0 0.0 4.0 0.00 0.00 0.00 64 1013.7
20260903134550 78 22 0.0 3.0 0.00 0.00 0.00 64 1013.5
20260903133042 78 0 0.0 0.0 0.00 0.00 0.00 65 1013.4
20260903131542 77 179 0.0 3.0 0.00 0.00 0.00 65 1013.4
20260903130041 76 0 0.0 0.0 0.00 0.00 0.00 66 1013.2
20260903124549 75 0 0.0 0.0 0.00 0.00 0.00 66 1013.3
20260903123042 75 0 0.0 0.0 0.00 0.00 0.00 67 1013.0
20260903121540 75 0 0.0 0.0 0.00 0.00 0.00 65 1012.8
20260903120049 75 0 0.0 0.0 0.00 0.00 0.00 65 1013.0
20260903114539 76 0 0.0 0.0 0.00 0.00 0.00 65 1012.9
20260903113047 75 0 0.0 0.0 0.00 0.00 0.00 65 1013.0
20260903111540 75 0 0.0 0.0 0.00 0.00 0.00 65 1012.8
20260903110043 75 0 0.0 0.0 0.00 0.00 0.00 65 1012.7
20260903104541 76 0 0.0 0.0 0.00 0.00 0.00 65 1012.5
20260903103042 76 0 0.0 0.0 0.00 0.00 0.00 65 1012.3
20260903101541 76 0 0.0 0.0 0.00 0.00 0.00 64 1012.5
20260903100047 77 0 0.0 0.0 0.00 0.00 0.00 64 1012.5
20260903094554 76 0 0.0 0.0 0.00 0.00 0.00 65 1012.5
20260903093040 76 0 0.0 0.0 0.00 0.00 0.00 65 1012.7
20260903091547 76 0 0.0 0.0 0.00 0.00 0.00 65 1012.6
20260903090040 76 0 0.0 0.0 0.00 0.00 0.00 64 1012.6
20260903084547 77 0 0.0 0.0 0.00 0.00 0.00 63 1012.5
20260903083043 77 0 0.0 0.0 0.00 0.00 0.00 62 1012.4
20260903081537 77 0 0.0 0.0 0.00 0.00 0.00 62 1012.5
20260903080048 78 0 0.0 0.0 0.00 0.00 0.00 62 1012.5